Weather History for KIND - January, 2014

Change the Weather History Date:

Sunday, January 12, 2014

  Actual Average Record
Temperature  
Mean Temperature 37 °F 28 °F  
Max Temperature 44 °F 35 °F 69 °F (1890)
Min Temperature 30 °F 20 °F -19 °F (1918)
Degree Days  
Heating Degree Days 28 37  
Month to date heating degree days 540 444  
Since 1 July heating degree days 2763 2520  
Cooling Degree Days 0 0  
Month to date cooling degree days 0 0  
Year to date cooling degree days 0 0  
Moisture  
Dew Point 28 °F    
Average Humidity 71    
Maximum Humidity 89    
Minimum Humidity 53    
Precipitation  
Precipitation 0.00 in 0.09 in 1.28 in (2013)
Month to date precipitation 1.92 1.13  
Year to date precipitation 1.92 1.13  
Snow  
Snow 0.00 in 0.30 in 6.90 in (1964)
Month to date snowfall 18.2 3.2  
Since 1 July snowfall 27.1 11.2  
Snow Depth 2.00 in    
Sea Level Pressure  
Sea Level Pressure 29.91 in    
Wind  
Wind Speed 11 mph (SSW)    
Max Wind Speed 22 mph    
Max Gust Speed 28 mph    
Visibility 10 miles    
Events      
T = Trace of Precipitation, MM = Missing Value Source: NWS Daily Summary

Daily Weather History Graph

Daily Weather History Graph

Search for Another Location

Airport or City:

Trip Planner

Search our weather history database for the weather conditions in past years. The results will help you decide how hot, cold, wet, or windy it might be!

Date:

Astronomy

Jan. 12, 2014 Rise Set
Actual Time 8:05 AM EST 5:42 PM EST
Civil Twilight 7:35 AM EST 6:11 PM EST
Nautical Twilight 7:02 AM EST 6:45 PM EST
Astronomical Twilight 6:29 AM EST 7:17 PM EST
Moon 3:09 PM EST (1/12) 5:03 AM EST (1/12)
Length of Visible Light 10h 36m
Length of Day
9h 36m
Waxing Gibbous, 89% of the Moon is Illuminated
Jan 12
Waxing Gibbous
Jan 15
Full
Jan 24
Last Quarter
Jan 30
New
Feb 6
First Quarter

Hourly Weather History & Observations

Time (EST) Temp. Windchill Dew Point Humidity Pressure Visibility Wind Dir Wind Speed Gust Speed Precip Events Conditions
12:54 AM 34.0 °F 23.0 °F 28.0 °F 79% 29.83 in 10.0 mi West 18.4 mph 27.6 mph N/A   Overcast
1:54 AM 32.0 °F 22.5 °F 27.0 °F 82% 29.85 in 10.0 mi WNW 12.7 mph - N/A   Overcast
2:07 AM 30.2 °F 19.8 °F 26.6 °F 86% 29.84 in 10.0 mi WNW 13.8 mph 20.7 mph N/A   Overcast
2:43 AM 30.2 °F 20.8 °F 26.6 °F 86% 29.86 in 10.0 mi West 11.5 mph - N/A   Overcast
2:54 AM 30.9 °F 21.2 °F 26.1 °F 82% 29.89 in 10.0 mi West 12.7 mph - N/A   Overcast
3:54 AM 30.9 °F 21.2 °F 26.1 °F 82% 29.91 in 10.0 mi West 12.7 mph - N/A   Overcast
4:54 AM 30.0 °F 21.1 °F 26.1 °F 85% 29.92 in 10.0 mi WNW 10.4 mph - N/A   Overcast
5:54 AM 30.0 °F 23.2 °F 25.0 °F 82% 29.94 in 10.0 mi WNW 6.9 mph - N/A   Overcast
6:14 AM 30.2 °F 26.7 °F 26.6 °F 86% 29.91 in 10.0 mi West 3.5 mph - N/A   Overcast
6:54 AM 30.0 °F 23.2 °F 25.0 °F 82% 29.96 in 10.0 mi WSW 6.9 mph - N/A   Overcast
7:54 AM 30.0 °F 22.4 °F 26.1 °F 85% 30.00 in 10.0 mi WSW 8.1 mph - N/A   Overcast
8:37 AM 30.2 °F 21.3 °F 26.6 °F 86% 29.98 in 7.0 mi SSW 10.4 mph - N/A   Overcast
8:54 AM 30.0 °F 21.7 °F 26.1 °F 85% 30.02 in 7.0 mi SSW 9.2 mph - N/A   Overcast
9:54 AM 30.0 °F 21.7 °F 26.1 °F 85% 30.04 in 7.0 mi SSW 9.2 mph - N/A   Overcast
10:54 AM 30.9 °F 21.7 °F 27.0 °F 85% 30.04 in 7.0 mi South 11.5 mph - N/A   Overcast
11:54 AM 33.1 °F 25.5 °F 28.0 °F 82% 30.01 in 9.0 mi SSE 9.2 mph - N/A   Mostly Cloudy
12:54 PM 36.0 °F 28.0 °F 28.9 °F 76% 29.97 in 10.0 mi SSE 11.5 mph - N/A   Mostly Cloudy
1:54 PM 39.0 °F 31.8 °F 30.0 °F 70% 29.95 in 10.0 mi SSE 11.5 mph - N/A   Mostly Cloudy
2:54 PM 41.0 °F 34.3 °F 30.0 °F 65% 29.92 in 10.0 mi South 11.5 mph - N/A   Mostly Cloudy
3:54 PM 43.0 °F 36.8 °F 30.0 °F 60% 29.91 in 10.0 mi South 11.5 mph - N/A   Mostly Cloudy
4:54 PM 44.1 °F 38.6 °F 28.0 °F 53% 29.89 in 10.0 mi South 10.4 mph - N/A   Scattered Clouds
5:54 PM 42.1 °F 36.1 °F 28.0 °F 58% 29.88 in 10.0 mi SSE 10.4 mph - N/A   Scattered Clouds
6:54 PM 42.1 °F 35.2 °F 28.9 °F 60% 29.88 in 10.0 mi SSE 12.7 mph - N/A   Partly Cloudy
7:54 PM 42.1 °F 34.5 °F 30.0 °F 62% 29.86 in 10.0 mi SSE 15.0 mph - N/A   Partly Cloudy
8:54 PM 42.1 °F 35.7 °F 30.0 °F 62% 29.84 in 10.0 mi South 11.5 mph - N/A   Partly Cloudy
9:54 PM 41.0 °F 34.3 °F 30.0 °F 65% 29.83 in 10.0 mi South 11.5 mph - N/A   Clear
10:54 PM 37.0 °F 31.0 °F 28.9 °F 73% 29.84 in 10.0 mi SSW 8.1 mph - N/A   Clear
11:54 PM 41.0 °F 33.9 °F 30.0 °F 65% 29.81 in 10.0 mi South 12.7 mph - N/A   Clear